Regional Weather Roundup
Issued by NWS Cleveland, OH

Home | Current Version | Previous Version | Graphics & Text | Print | Product List | Glossary On
Versions: 1 2 3 4 5 6 7 8 9 10 11 12 13 14 15 16 17 18 19 20 21 22 23 24 25 26 27 28 29 30 31 32 33 34 35 36 37 38 39 40 41 42 43 44 45 46 47 48 49 50
000
ASUS41 KCLE 010610
RWRCLE
OHIO REGIONAL WEATHER ROUNDUP
NATIONAL WEATHER SERVICE CLEVELAND, OH
200 AM EDT FRI AUG 01 2014

NOTE: "FAIR" INDICATES FEW OR NO CLOUDS BELOW 12,000 FEET WITH NO
SIGNIFICANT WEATHER AND/OR OBSTRUCTIONS TO VISIBILITY.

OHZ001>008-015>018-024>027-034-035-043-044-010700-
   NORTHWEST OHIO

CITY           SKY/WX    TMP DP  RH WIND       PRES   REMARKS
DEFIANCE       PTCLDY    64  60  87 CALM      30.08S
FINDLAY        MOCLDY    65  60  84 S6        30.08S
TOLEDO EXPRESS PTCLDY    61  59  93 CALM      30.07S
TOLEDO EXEC    PTCLDY    63  58  83 CALM      30.07F
LIMA           PTCLDY    64  59  83 S8        30.10F
$$

OHZ009>014-019>023-028>033-038-089-010700-
   NORTHEAST OHIO

CITY           SKY/WX    TMP DP  RH WIND       PRES   REMARKS
CLE-HOPKINS    MOCLDY    68  57  68 S8        30.11S
CLE-LAKEFRONT  CLEAR     70  58  65 S7        30.07F
CUY CO. ARPT   NOT AVBL
LORAIN-ELYRIA  CLEAR     67  58  72 SW3       30.10S
ASHTABULA      CLEAR     61  56  83 S6        30.10F
AKRON-CANTON   CLEAR     64  57  78 S6        30.12S
WOOSTER        CLEAR     57  55  93 CALM      30.12F
MANSFIELD      CLEAR     61  58  90 S5        30.12F
YOUNGSTOWN     MOCLDY    65  58  78 S6        30.13R
$$

OHZ042-051>053-060>062-070>072-077>081-010700-
  SOUTHWEST OHIO

CITY           SKY/WX    TMP DP  RH WIND       PRES   REMARKS
CINC-COVINGTON CLEAR     68  60  75 CALM      30.10F
CINC-LUNKEN    CLEAR     63  62  97 CALM      30.10F FOG
HAMILTON       CLEAR     62  61  96 CALM      30.11S
DAYTON         CLEAR     65  59  81 CALM      30.12S
WRIGHT-PAT AFB CLEAR     64  60  87 CALM      30.11S
DAYTON GENERAL MOCLDY    63  60  90 CALM      30.10F
WILMINGTON     CLOUDY    67  63  87 CALM      30.11S
$$

OHZ036-037-039>041-045>050-054>059-063>069-073>076-082>088-010700-
  CENTRAL AND SOUTHEAST OHIO

CITY           SKY/WX    TMP DP  RH WIND       PRES   REMARKS
COLUMBUS       CLEAR     66  61  84 CALM      30.10F
OSU AIRPORT    CLEAR     63  60  90 SE6       30.11S
BOLTON FIELD   CLEAR     62  62 100 CALM      30.11F FOG
RICKENBACK AFB MOCLDY    65  59  78 CALM      30.10F
NEWARK         CLEAR     60  58  92 CALM      30.11F FOG
MARION         CLEAR     62  58  86 S3        30.11F
LANCASTER      MOCLDY    61  59  93 CALM      30.11F FOG
ZANESVILLE     CLEAR     62  60  93 CALM      30.12S
NEW PHILLY     CLEAR     59  58  96 CALM      30.13S FOG
$$


USA.gov is the U.S. government's official web portal to all federal, state and local government web resources and services.